Location: Huntsville
(41.2590°N, 111.7678°W)
Time: 07:53:42
(UTC+00:00)

S-56A Canister/Altair - Visible Passes

Search period start: 25 September 2022 00:00
Search period end: 05 October 2022 00:00
Orbit: 637 x 2496 km, 38.9° (Epoch: 24 September)

Date Brightness Start Highest point End Pass type
(mag) Time Alt. Az. Time Alt. Az. Time Alt. Az.
25 Sep 10.0 09:39:52 22° ESE 09:39:52 22° ESE 09:43:02 10° E visible
25 Sep 8.4 11:37:18 27° SW 11:41:21 56° SSE 11:46:49 10° E visible
26 Sep 10.5 09:08:58 16° ESE 09:08:58 16° ESE 09:10:27 10° E visible
26 Sep 8.6 11:06:23 41° SSW 11:08:40 53° SSE 11:14:28 10° E visible
27 Sep 8.7 10:35:27 51° S 10:35:55 51° SSE 10:42:05 10° E visible
27 Sep 8.0 12:32:53 11° W 12:40:00 72° S 12:45:11 10° E visible
28 Sep 9.1 10:04:30 45° SE 10:04:30 45° SE 10:09:41 10° E visible
28 Sep 8.1 12:01:55 21° WSW 12:07:21 73° S 12:12:52 10° E visible
29 Sep 9.7 09:33:32 32° ESE 09:33:32 32° ESE 09:37:16 10° E visible
29 Sep 8.3 11:30:57 35° WSW 11:34:39 72° S 11:40:32 10° E visible
30 Sep 10.3 09:02:33 21° E 09:02:33 21° E 09:04:47 10° E visible
30 Sep 8.4 10:59:58 54° SW 11:01:54 71° S 11:08:11 10° E visible
01 Oct 10.8 08:31:33 13° E 08:31:33 13° E 08:32:14 10° E visible
01 Oct 8.5 10:28:59 70° S 10:29:04 70° S 10:35:49 10° E visible
01 Oct 8.2 12:26:25 14° W 12:33:22 68° S 12:38:48 10° ESE visible
02 Oct 9.0 09:58:00 55° ESE 09:58:00 55° ESE 10:03:25 10° E visible
02 Oct 8.3 11:55:25 24° W 12:00:41 72° S 12:06:30 10° ESE visible
03 Oct 9.7 09:27:02 37° E 09:27:02 37° E 09:30:59 10° E visible
03 Oct 8.4 11:24:27 39° W 11:27:55 75° S 11:34:11 10° ESE visible
04 Oct 10.3 08:56:04 23° E 08:56:04 23° E 08:58:30 10° E visible
04 Oct 8.5 10:53:30 61° WSW 10:55:07 77° S 11:01:49 10° E visible
04 Oct 8.6 12:51:28 10° W 12:59:04 46° SSW 13:04:21 10° SE visible
